| time (UTC) | temp F | wind direction | speed knots | gust knots | rain 1hr in | rain 24hr in | rain mn in | humidity % | barometer mb |
| 20260906113515 | 76 | 249 | 0.0 | 0.9 | 0.00 | 0.00 | 0.00 | 73 | 1015.0 |
| 20260906113012 | 77 | 240 | 0.0 | 0.9 | 0.00 | 0.00 | 0.00 | 73 | 1015.0 |
| 20260906112506 | 76 | 240 | 0.0 | 0.9 | 0.00 | 0.00 | 0.00 | 72 | 1015.0 |
| 20260906112014 | 76 | 240 | 0.0 | 0.9 | 0.00 | 0.00 | 0.00 | 73 | 1015.0 |
| 20260906111513 | 76 | 240 | 0.0 | 0.9 | 0.00 | 0.00 | 0.00 | 73 | 1015.0 |
| 20260906111008 | 76 | 240 | 0.0 | 1.7 | 0.00 | 0.00 | 0.00 | 73 | 1015.0 |
| 20260906110509 | 76 | 242 | 0.0 | 1.7 | 0.00 | 0.00 | 0.00 | 74 | 1015.1 |
| 20260906110018 | 75 | 243 | 0.9 | 1.7 | 0.00 | 0.00 | 0.00 | 74 | 1015.1 |
| 20260906105516 | 76 | 243 | 0.9 | 1.7 | 0.00 | 0.00 | 0.00 | 73 | 1015.1 |
| 20260906105013 | 76 | 307 | 0.0 | 0.0 | 0.00 | 0.00 | 0.00 | 71 | 1015.1 |
| 20260906104528 | 77 | 306 | 0.0 | 0.9 | 0.00 | 0.00 | 0.00 | 70 | 1014.9 |
| 20260906104016 | 78 | 312 | 0.0 | 3.5 | 0.00 | 0.00 | 0.00 | 69 | 1014.9 |
| 20260906103515 | 78 | 301 | 0.9 | 3.5 | 0.00 | 0.00 | 0.00 | 67 | 1014.7 |
| 20260906103027 | 78 | 345 | 1.7 | 3.5 | 0.00 | 0.00 | 0.00 | 67 | 1014.8 |
| 20260906102521 | 78 | 323 | 0.0 | 1.7 | 0.00 | 0.00 | 0.00 | 67 | 1014.9 |
| 20260906102017 | 78 | 245 | 0.0 | 3.5 | 0.00 | 0.00 | 0.00 | 67 | 1014.9 |
| 20260906101520 | 78 | 338 | 0.9 | 3.5 | 0.00 | 0.00 | 0.00 | 67 | 1014.9 |
| 20260906101007 | 78 | 329 | 0.9 | 4.3 | 0.00 | 0.00 | 0.00 | 67 | 1014.9 |
| 20260906100509 | 78 | 325 | 1.7 | 4.3 | 0.00 | 0.00 | 0.00 | 67 | 1014.9 |
| 20260906100022 | 77 | 324 | 1.7 | 2.6 | 0.00 | 0.00 | 0.00 | 68 | 1015.0 |
| 20260906095511 | 77 | 340 | 0.0 | 1.7 | 0.00 | 0.00 | 0.00 | 69 | 1014.9 |
| 20260906095010 | 77 | 255 | 0.0 | 0.9 | 0.00 | 0.00 | 0.00 | 70 | 1014.9 |
| 20260906094518 | 77 | 241 | 0.0 | 3.5 | 0.00 | 0.00 | 0.00 | 70 | 1014.9 |
| 20260906094013 | 77 | 333 | 1.7 | 3.5 | 0.00 | 0.00 | 0.00 | 70 | 1014.9 |
| 20260906093514 | 77 | 314 | 0.9 | 3.5 | 0.00 | 0.00 | 0.00 | 70 | 1014.9 |
| 20260906093030 | 77 | 58 | 0.9 | 3.5 | 0.00 | 0.00 | 0.00 | 70 | 1015.1 |
| 20260906092514 | 77 | 70 | 0.9 | 3.5 | 0.00 | 0.00 | 0.00 | 70 | 1015.1 |
| 20260906092020 | 77 | 242 | 0.0 | 2.6 | 0.00 | 0.00 | 0.00 | 69 | 1015.0 |
| 20260906091528 | 77 | 242 | 0.0 | 2.6 | 0.00 | 0.00 | 0.00 | 69 | 1014.9 |
| 20260906091015 | 77 | 241 | 0.9 | 2.6 | 0.00 | 0.00 | 0.00 | 69 | 1014.8 |
| 20260906090524 | 76 | 252 | 0.9 | 2.6 | 0.00 | 0.00 | 0.00 | 69 | 1014.9 |
| 20260906090023 | 76 | 240 | 0.0 | 0.9 | 0.00 | 0.00 | 0.00 | 70 | 1014.9 |
| 20260906085509 | 77 | 240 | 0.0 | 0.9 | 0.00 | 0.00 | 0.00 | 69 | 1014.9 |
| 20260906085009 | 77 | 255 | 0.0 | 1.7 | 0.00 | 0.00 | 0.00 | 69 | 1014.9 |
| 20260906084518 | 76 | 248 | 0.0 | 1.7 | 0.00 | 0.00 | 0.00 | 70 | 1014.8 |
| 20260906084013 | 76 | 233 | 0.0 | 0.9 | 0.00 | 0.00 | 0.00 | 69 | 1014.8 |
| 20260906083513 | 77 | 233 | 0.0 | 0.9 | 0.00 | 0.00 | 0.00 | 69 | 1014.7 |
| 20260906083025 | 77 | 257 | 0.0 | 0.9 | 0.00 | 0.00 | 0.00 | 67 | 1014.8 |
| 20260906082513 | 78 | 257 | 0.0 | 0.9 | 0.00 | 0.00 | 0.00 | 66 | 1014.8 |
| 20260906082015 | 78 | 256 | 0.0 | 0.9 | 0.00 | 0.00 | 0.00 | 64 | 1014.8 |
| 20260906081505 | 78 | 257 | 0.0 | 0.9 | 0.00 | 0.00 | 0.00 | 64 | 1014.8 |
| 20260906081002 | 78 | 326 | 0.0 | 0.9 | 0.00 | 0.00 | 0.00 | 64 | 1014.7 |
| 20260906080505 | 78 | 245 | 0.0 | 1.7 | 0.00 | 0.00 | 0.00 | 64 | 1014.7 |
| 20260906080006 | 79 | 251 | 0.9 | 2.6 | 0.00 | 0.00 | 0.00 | 63 | 1014.7 |
| 20260906075514 | 78 | 251 | 0.9 | 2.6 | 0.00 | 0.00 | 0.00 | 64 | 1014.7 |
| 20260906075008 | 78 | 232 | 0.9 | 2.6 | 0.00 | 0.00 | 0.00 | 65 | 1014.6 |
| 20260906074513 | 78 | 245 | 0.9 | 2.6 | 0.00 | 0.00 | 0.00 | 65 | 1014.7 |
| 20260906074010 | 78 | 243 | 0.9 | 1.7 | 0.00 | 0.00 | 0.00 | 66 | 1014.6 |
| 20260906073511 | 77 | 250 | 0.0 | 1.7 | 0.00 | 0.00 | 0.00 | 66 | 1014.7 |
| 20260906073020 | 77 | 248 | 0.9 | 1.7 | 0.00 | 0.00 | 0.00 | 68 | 1014.7 |
| 20260906072516 | 77 | 248 | 0.0 | 0.9 | 0.00 | 0.00 | 0.00 | 68 | 1014.7 |
| 20260906072014 | 77 | 258 | 0.0 | 0.9 | 0.00 | 0.00 | 0.00 | 68 | 1014.7 |
| 20260906071528 | 77 | 258 | 0.0 | 0.9 | 0.00 | 0.00 | 0.00 | 68 | 1014.9 |
| 20260906071018 | 77 | 261 | 0.0 | 0.9 | 0.00 | 0.00 | 0.00 | 68 | 1014.9 |
| 20260906070514 | 77 | 262 | 0.0 | 0.9 | 0.00 | 0.00 | 0.00 | 68 | 1014.9 |
| 20260906070006 | 77 | 262 | 0.0 | 0.9 | 0.00 | 0.00 | 0.00 | 69 | 1015.0 |
| 20260906065506 | 77 | 255 | 0.0 | 0.9 | 0.00 | 0.00 | 0.00 | 69 | 1014.9 |
| 20260906065008 | 77 | 255 | 0.0 | 0.9 | 0.00 | 0.00 | 0.00 | 69 | 1015.0 |
| 20260906064508 | 77 | 251 | 0.0 | 0.9 | 0.00 | 0.00 | 0.00 | 71 | 1014.9 |
| 20260906064011 | 77 | 251 | 0.0 | 0.9 | 0.00 | 0.00 | 0.00 | 70 | 1014.9 |
| 20260906063513 | 77 | 251 | 0.0 | 0.9 | 0.00 | 0.00 | 0.00 | 70 | 1014.9 |
| 20260906063015 | 77 | 251 | 0.0 | 0.9 | 0.00 | 0.00 | 0.00 | 70 | 1014.8 |
| 20260906062512 | 77 | 255 | 0.9 | 0.9 | 0.00 | 0.00 | 0.00 | 69 | 1014.8 |
| 20260906062015 | 77 | 262 | 0.0 | 0.9 | 0.00 | 0.00 | 0.00 | 68 | 1014.9 |
| 20260906061523 | 77 | 262 | 0.0 | 0.9 | 0.00 | 0.00 | 0.00 | 68 | 1015.1 |
| 20260906061012 | 76 | 262 | 0.0 | 0.9 | 0.00 | 0.00 | 0.00 | 69 | 1015.2 |
| 20260906060517 | 76 | 257 | 0.0 | 0.9 | 0.00 | 0.00 | 0.00 | 69 | 1015.3 |
| 20260906060028 | 76 | 257 | 0.0 | 0.9 | 0.00 | 0.00 | 0.00 | 69 | 1015.4 |
| 20260906055517 | 76 | 257 | 0.0 | 0.9 | 0.00 | 0.00 | 0.00 | 70 | 1015.4 |
| 20260906055015 | 77 | 257 | 0.0 | 0.9 | 0.00 | 0.00 | 0.00 | 69 | 1015.4 |
| 20260906054542 | 76 | 257 | 0.0 | 0.9 | 0.00 | 0.00 | 0.00 | 69 | 1015.5 |
| 20260906054009 | 77 | 314 | 0.0 | 0.9 | 0.00 | 0.00 | 0.00 | 69 | 1015.6 |
| 20260906053510 | 76 | 315 | 0.0 | 0.9 | 0.00 | 0.00 | 0.00 | 69 | 1015.7 |
| 20260906053010 | 75 | 325 | 0.9 | 0.9 | 0.00 | 0.00 | 0.00 | 71 | 1015.7 |
| 20260906052510 | 75 | 297 | 0.0 | 0.9 | 0.00 | 0.00 | 0.00 | 72 | 1015.8 |
| 20260906052014 | 75 | 248 | 0.0 | 0.9 | 0.00 | 0.00 | 0.00 | 73 | 1015.8 |
| 20260906051518 | 74 | 244 | 0.0 | 0.9 | 0.00 | 0.00 | 0.00 | 74 | 1015.8 |
| 20260906051016 | 74 | 244 | 0.9 | 0.9 | 0.00 | 0.00 | 0.00 | 76 | 1015.9 |
| 20260906050511 | 75 | 244 | 0.0 | 0.9 | 0.00 | 0.00 | 0.00 | 76 | 1016.0 |
| 20260906050027 | 75 | 244 | 0.0 | 0.9 | 0.00 | 0.00 | 0.00 | 75 | 1015.9 |
| 20260906045512 | 75 | 244 | 0.0 | 0.9 | 0.00 | 0.00 | 0.00 | 74 | 1015.9 |
| 20260906045014 | 75 | 244 | 0.0 | 0.9 | 0.00 | 0.00 | 0.00 | 75 | 1015.9 |
| 20260906044531 | 75 | 244 | 0.0 | 0.9 | 0.00 | 0.00 | 0.00 | 75 | 1016.1 |
| 20260906044018 | 75 | 244 | 0.0 | 0.9 | 0.00 | 0.00 | 0.00 | 75 | 1016.0 |
| 20260906043519 | 75 | 244 | 0.0 | 0.9 | 0.00 | 0.00 | 0.00 | 75 | 1016.0 |
| 20260906043032 | 74 | 244 | 0.0 | 0.9 | 0.00 | 0.00 | 0.00 | 77 | 1016.0 |
| 20260906042507 | 74 | 244 | 0.0 | 0.9 | 0.00 | 0.00 | 0.00 | 78 | 1016.0 |
| 20260906042010 | 74 | 244 | 0.0 | 0.9 | 0.00 | 0.00 | 0.00 | 78 | 1016.0 |
| 20260906041514 | 74 | 244 | 0.0 | 0.9 | 0.00 | 0.00 | 0.00 | 78 | 1016.1 |
| 20260906041011 | 74 | 246 | 0.0 | 0.0 | 0.00 | 0.00 | 0.00 | 77 | 1016.1 |
| 20260906040511 | 74 | 246 | 0.0 | 0.0 | 0.00 | 0.00 | 0.00 | 78 | 1016.1 |
| 20260906040034 | 74 | 246 | 0.0 | 0.9 | 0.00 | 0.00 | 0.00 | 78 | 1016.0 |
| 20260906035514 | 74 | 246 | 0.0 | 0.9 | 0.00 | 0.00 | 0.00 | 78 | 1016.0 |
| 20260906035014 | 74 | 246 | 0.0 | 0.9 | 0.00 | 0.00 | 0.00 | 78 | 1016.1 |
| 20260906034524 | 75 | 246 | 0.0 | 1.7 | 0.00 | 0.00 | 0.00 | 77 | 1016.1 |
| 20260906034016 | 75 | 248 | 0.0 | 1.7 | 0.00 | 0.00 | 0.00 | 76 | 1016.1 |
| 20260906033514 | 75 | 246 | 0.0 | 1.7 | 0.00 | 0.00 | 0.00 | 76 | 1016.1 |
| 20260906033040 | 75 | 246 | 0.0 | 1.7 | 0.00 | 0.00 | 0.00 | 76 | 1016.2 |
| 20260906032516 | 75 | 243 | 0.0 | 1.7 | 0.00 | 0.00 | 0.00 | 76 | 1016.1 |
| 20260906032016 | 76 | 240 | 0.0 | 1.7 | 0.00 | 0.00 | 0.00 | 75 | 1016.1 |
| 20260906031531 | 76 | 304 | 0.0 | 0.9 | 0.00 | 0.00 | 0.00 | 75 | 1016.1 |
| 20260906031008 | 75 | 307 | 0.0 | 1.7 | 0.00 | 0.00 | 0.00 | 77 | 1016.0 |
| 20260906030509 | 74 | 311 | 0.9 | 1.7 | 0.00 | 0.00 | 0.00 | 79 | 1016.1 |
| 20260906030019 | 74 | 295 | 0.0 | 1.7 | 0.00 | 0.00 | 0.00 | 80 | 1016.2 |
| 20260906025518 | 74 | 316 | 0.0 | 1.7 | 0.00 | 0.00 | 0.00 | 80 | 1016.2 |
| 20260906025014 | 75 | 249 | 0.0 | 1.7 | 0.00 | 0.00 | 0.00 | 79 | 1016.3 |
| 20260906024523 | 75 | 250 | 0.0 | 1.7 | 0.00 | 0.00 | 0.00 | 79 | 1016.4 |
| 20260906024019 | 76 | 250 | 0.9 | 1.7 | 0.00 | 0.00 | 0.00 | 77 | 1016.4 |
| 20260906023516 | 76 | 236 | 0.9 | 1.7 | 0.00 | 0.00 | 0.00 | 76 | 1016.7 |
| 20260906023028 | 77 | 246 | 0.0 | 1.7 | 0.00 | 0.00 | 0.00 | 75 | 1016.5 |
| 20260906022514 | 77 | 255 | 0.0 | 1.7 | 0.00 | 0.00 | 0.00 | 74 | 1016.4 |
| 20260906022016 | 77 | 250 | 0.0 | 0.9 | 0.00 | 0.00 | 0.00 | 73 | 1016.4 |
| 20260906021531 | 77 | 261 | 0.0 | 0.9 | 0.00 | 0.00 | 0.00 | 72 | 1016.3 |
| 20260906021018 | 77 | 262 | 0.0 | 0.9 | 0.00 | 0.00 | 0.00 | 72 | 1016.4 |
| 20260906020516 | 77 | 262 | 0.0 | 0.9 | 0.00 | 0.00 | 0.00 | 71 | 1016.4 |
| 20260906020033 | 77 | 262 | 0.0 | 0.9 | 0.00 | 0.00 | 0.00 | 72 | 1016.3 |
| 20260906015510 | 77 | 264 | 0.0 | 0.9 | 0.00 | 0.00 | 0.00 | 73 | 1016.3 |
| 20260906015010 | 77 | 264 | 0.0 | 0.9 | 0.00 | 0.00 | 0.00 | 73 | 1016.1 |
| 20260906014529 | 77 | 265 | 0.0 | 0.9 | 0.00 | 0.00 | 0.00 | 73 | 1016.1 |
| 20260906014013 | 77 | 268 | 0.0 | 0.9 | 0.00 | 0.00 | 0.00 | 74 | 1016.1 |
| 20260906013513 | 77 | 268 | 0.0 | 0.9 | 0.00 | 0.00 | 0.00 | 75 | 1016.0 |
| 20260906013023 | 77 | 308 | 0.0 | 0.9 | 0.00 | 0.00 | 0.00 | 77 | 1015.9 |
| 20260906012515 | 77 | 308 | 0.0 | 0.9 | 0.00 | 0.00 | 0.00 | 77 | 1015.8 |
| 20260906012016 | 77 | 308 | 0.0 | 0.9 | 0.00 | 0.00 | 0.00 | 78 | 1015.6 |
| 20260906011527 | 77 | 254 | 0.0 | 0.9 | 0.00 | 0.00 | 0.00 | 77 | 1015.5 |
| 20260906011016 | 77 | 239 | 0.0 | 0.9 | 0.00 | 0.00 | 0.00 | 75 | 1015.4 |
| 20260906010517 | 78 | 239 | 0.0 | 0.9 | 0.00 | 0.00 | 0.00 | 74 | 1015.2 |
| 20260906010032 | 78 | 239 | 0.0 | 0.9 | 0.00 | 0.00 | 0.00 | 74 | 1015.1 |
| 20260906005518 | 78 | 240 | 0.0 | 0.9 | 0.00 | 0.00 | 0.00 | 73 | 1015.2 |
| 20260906005018 | 79 | 240 | 0.0 | 1.7 | 0.00 | 0.00 | 0.00 | 73 | 1015.3 |
| 20260906004540 | 79 | 240 | 0.9 | 1.7 | 0.00 | 0.00 | 0.00 | 72 | 1015.0 |
| 20260906004012 | 79 | 242 | 0.0 | 0.9 | 0.00 | 0.00 | 0.00 | 73 | 1014.9 |
| 20260906003510 | 78 | 241 | 0.0 | 1.7 | 0.00 | 0.00 | 0.00 | 73 | 1014.8 |
| 20260906003016 | 78 | 241 | 0.9 | 1.7 | 0.00 | 0.00 | 0.00 | 74 | 1014.7 |
| 20260906002515 | 78 | 243 | 0.0 | 1.7 | 0.00 | 0.00 | 0.00 | 74 | 1014.7 |
| 20260906002015 | 79 | 244 | 0.9 | 1.7 | 0.00 | 0.00 | 0.00 | 73 | 1014.7 |
| 20260906001525 | 79 | 243 | 0.9 | 1.7 | 0.00 | 0.00 | 0.00 | 73 | 1014.5 |
| 20260906001016 | 79 | 258 | 0.0 | 1.7 | 0.00 | 0.00 | 0.00 | 72 | 1014.4 |
| 20260906000516 | 80 | 278 | 0.0 | 1.7 | 0.00 | 0.00 | 0.00 | 72 | 1014.4 |
| 20260906000031 | 79 | 342 | 0.0 | 1.7 | 0.00 | 0.00 | 0.00 | 72 | 1014.4 |
| 20260905235517 | 79 | 323 | 0.9 | 1.7 | 0.00 | 0.00 | 0.00 | 73 | 1014.3 |
| 20260905235016 | 79 | 302 | 0.9 | 1.7 | 0.00 | 0.00 | 0.00 | 73 | 1014.4 |
| 20260905234531 | 79 | 336 | 0.0 | 0.9 | 0.00 | 0.00 | 0.00 | 72 | 1014.4 |
| 20260905234019 | 80 | 336 | 0.0 | 1.7 | 0.00 | 0.00 | 0.00 | 71 | 1014.6 |
| 20260905233518 | 80 | 340 | 0.9 | 2.6 | 0.00 | 0.00 | 0.00 | 71 | 1014.7 |
| 20260905233033 | 80 | 332 | 0.9 | 2.6 | 0.00 | 0.00 | 0.00 | 70 | 1014.8 |
| 20260905232512 | 80 | 313 | 0.9 | 0.9 | 0.00 | 0.00 | 0.00 | 69 | 1014.9 |
| 20260905232012 | 80 | 250 | 0.0 | 0.9 | 0.00 | 0.00 | 0.00 | 71 | 1015.1 |
| 20260905231518 | 80 | 250 | 0.0 | 0.9 | 0.00 | 0.00 | 0.00 | 71 | 1015.2 |
| 20260905231011 | 81 | 250 | 0.0 | 0.9 | 0.00 | 0.00 | 0.00 | 70 | 1015.1 |
| 20260905230504 | 81 | 250 | 0.0 | 0.9 | 0.00 | 0.00 | 0.00 | 70 | 1015.0 |
| 20260905230004 | 82 | 250 | 0.0 | 0.9 | 0.00 | 0.00 | 0.00 | 70 | 1014.9 |
| 20260905225504 | 82 | 250 | 0.0 | 0.9 | 0.00 | 0.00 | 0.00 | 66 | 1015.0 |
| 20260905225006 | 82 | 250 | 0.0 | 0.9 | 0.00 | 0.00 | 0.00 | 68 | 1015.0 |
| 20260905224511 | 82 | 327 | 0.0 | 0.9 | 0.00 | 0.00 | 0.00 | 67 | 1015.0 |
| 20260905224004 | 82 | 327 | 0.9 | 0.9 | 0.00 | 0.00 | 0.00 | 66 | 1015.1 |
| 20260905223508 | 82 | 266 | 0.0 | 0.9 | 0.00 | 0.00 | 0.00 | 70 | 1015.3 |
| 20260905223013 | 82 | 269 | 0.0 | 0.9 | 0.00 | 0.00 | 0.00 | 68 | 1015.3 |
| 20260905222509 | 82 | 52 | 0.0 | 0.9 | 0.00 | 0.00 | 0.00 | 69 | 1015.4 |
| 20260905222012 | 82 | 52 | 0.0 | 1.7 | 0.00 | 0.00 | 0.00 | 68 | 1015.4 |
| 20260905221518 | 82 | 53 | 0.9 | 3.5 | 0.00 | 0.00 | 0.00 | 67 | 1015.3 |
| 20260905221009 | 83 | 48 | 1.7 | 3.5 | 0.00 | 0.00 | 0.00 | 66 | 1015.2 |
| 20260905220508 | 83 | 67 | 0.9 | 5.2 | 0.00 | 0.00 | 0.00 | 65 | 1015.3 |
| 20260905220016 | 83 | 5 | 1.7 | 5.2 | 0.00 | 0.00 | 0.00 | 61 | 1014.9 |
| 20260905215511 | 83 | 35 | 1.7 | 4.3 | 0.00 | 0.00 | 0.00 | 64 | 1014.6 |
| 20260905215004 | 83 | 56 | 2.6 | 6.1 | 0.00 | 0.00 | 0.00 | 63 | 1014.5 |
| 20260905214504 | 83 | 331 | 2.6 | 6.1 | 0.00 | 0.00 | 0.00 | 63 | 1014.6 |
| 20260905214004 | 82 | 103 | 2.6 | 6.1 | 0.00 | 0.00 | 0.00 | 67 | 1014.5 |
| 20260905213504 | 82 | 342 | 1.7 | 6.1 | 0.00 | 0.00 | 0.00 | 69 | 1014.5 |
| 20260905213009 | 82 | 71 | 3.5 | 6.1 | 0.00 | 0.00 | 0.00 | 70 | 1014.4 |
| 20260905212506 | 82 | 31 | 2.6 | 6.1 | 0.00 | 0.00 | 0.00 | 71 | 1014.5 |
| 20260905212008 | 82 | 45 | 1.7 | 6.1 | 0.00 | 0.00 | 0.00 | 69 | 1014.7 |
| 20260905211535 | 83 | 314 | 2.6 | 9.6 | 0.00 | 0.00 | 0.00 | 67 | 1014.8 |
| 20260905211010 | 84 | 51 | 3.5 | 9.6 | 0.00 | 0.00 | 0.00 | 66 | 1014.9 |
| 20260905210514 | 86 | 293 | 4.3 | 8.7 | 0.00 | 0.00 | 0.00 | 62 | 1015.0 |
| 20260905210033 | 87 | 351 | 2.6 | 5.2 | 0.00 | 0.00 | 0.00 | 60 | 1014.9 |
| 20260905205510 | 88 | 56 | 1.7 | 4.3 | 0.00 | 0.00 | 0.00 | 58 | 1015.0 |
| 20260905205012 | 88 | 316 | 1.7 | 3.5 | 0.00 | 0.00 | 0.00 | 56 | 1015.0 |
| 20260905204517 | 89 | 26 | 1.7 | 3.5 | 0.00 | 0.00 | 0.00 | 53 | 1014.8 |
| 20260905204011 | 89 | 322 | 1.7 | 3.5 | 0.00 | 0.00 | 0.00 | 55 | 1014.7 |
| 20260905203503 | 89 | 35 | 1.7 | 4.3 | 0.00 | 0.00 | 0.00 | 53 | 1014.7 |
| 20260905203005 | 89 | 338 | 1.7 | 4.3 | 0.00 | 0.00 | 0.00 | 52 | 1014.7 |
| 20260905202506 | 89 | 39 | 2.6 | 4.3 | 0.00 | 0.00 | 0.00 | 51 | 1014.9 |
| 20260905202006 | 89 | 333 | 2.6 | 4.3 | 0.00 | 0.00 | 0.00 | 53 | 1015.0 |
| 20260905201510 | 89 | 358 | 1.7 | 4.3 | 0.00 | 0.00 | 0.00 | 53 | 1015.0 |
| 20260905201006 | 89 | 64 | 0.9 | 4.3 | 0.00 | 0.00 | 0.00 | 55 | 1015.0 |
| 20260905200516 | 89 | 20 | 2.6 | 4.3 | 0.00 | 0.00 | 0.00 | 54 | 1015.0 |
| 20260905200021 | 89 | 359 | 0.9 | 4.3 | 0.00 | 0.00 | 0.00 | 54 | 1015.1 |
| 20260905195513 | 89 | 38 | 1.7 | 4.3 | 0.00 | 0.00 | 0.00 | 53 | 1015.0 |
| 20260905195011 | 89 | 345 | 1.7 | 3.5 | 0.00 | 0.00 | 0.00 | 54 | 1015.0 |
| 20260905194523 | 89 | 295 | 1.7 | 3.5 | 0.00 | 0.00 | 0.00 | 55 | 1015.0 |
| 20260905194012 | 89 | 331 | 1.7 | 4.3 | 0.00 | 0.00 | 0.00 | 54 | 1015.1 |
| 20260905193513 | 89 | 316 | 0.9 | 4.3 | 0.00 | 0.00 | 0.00 | 54 | 1015.2 |
| 20260905193019 | 89 | 328 | 2.6 | 4.3 | 0.00 | 0.00 | 0.00 | 54 | 1015.2 |
| 20260905192514 | 89 | 319 | 0.9 | 4.3 | 0.00 | 0.00 | 0.00 | 55 | 1015.3 |
| 20260905192004 | 89 | 57 | 1.7 | 4.3 | 0.00 | 0.00 | 0.00 | 54 | 1015.6 |
| 20260905191508 | 89 | 41 | 2.6 | 4.3 | 0.00 | 0.00 | 0.00 | 54 | 1015.6 |
| 20260905191007 | 89 | 49 | 0.9 | 4.3 | 0.00 | 0.00 | 0.00 | 55 | 1015.6 |
| 20260905190507 | 90 | 20 | 1.7 | 5.2 | 0.00 | 0.00 | 0.00 | 54 | 1015.7 |
| 20260905190012 | 90 | 39 | 2.6 | 5.2 | 0.00 | 0.00 | 0.00 | 56 | 1015.6 |
| 20260905185507 | 90 | 321 | 1.7 | 2.6 | 0.00 | 0.00 | 0.00 | 56 | 1015.6 |
| 20260905185010 | 91 | 334 | 0.9 | 2.6 | 0.00 | 0.00 | 0.00 | 55 | 1015.6 |
| 20260905184526 | 91 | 63 | 0.9 | 5.2 | 0.00 | 0.00 | 0.00 | 55 | 1015.6 |
| 20260905184012 | 90 | 73 | 2.6 | 5.2 | 0.00 | 0.00 | 0.00 | 55 | 1015.8 |
| 20260905183511 | 90 | 96 | 0.9 | 4.3 | 0.00 | 0.00 | 0.00 | 56 | 1015.7 |
| 20260905183025 | 90 | 100 | 1.7 | 4.3 | 0.00 | 0.00 | 0.00 | 56 | 1015.8 |
| 20260905182512 | 90 | 19 | 0.9 | 1.7 | 0.00 | 0.00 | 0.00 | 52 | 1015.9 |
| 20260905182018 | 90 | 109 | 0.9 | 5.2 | 0.00 | 0.00 | 0.00 | 54 | 1016.0 |
| 20260905181523 | 90 | 53 | 2.6 | 5.2 | 0.00 | 0.00 | 0.00 | 55 | 1016.1 |
| 20260905181011 | 90 | 67 | 0.0 | 3.5 | 0.00 | 0.00 | 0.00 | 56 | 1016.1 |
| 20260905180515 | 89 | 42 | 0.9 | 4.3 | 0.00 | 0.00 | 0.00 | 57 | 1016.3 |
| 20260905180008 | 89 | 297 | 1.7 | 4.3 | 0.00 | 0.00 | 0.00 | 55 | 1016.3 |
| 20260905175506 | 89 | 52 | 2.6 | 5.2 | 0.00 | 0.00 | 0.00 | 56 | 1016.3 |
| 20260905175008 | 89 | 55 | 1.7 | 5.2 | 0.00 | 0.00 | 0.00 | 57 | 1016.4 |
| 20260905174513 | 89 | 42 | 3.5 | 5.2 | 0.00 | 0.00 | 0.00 | 55 | 1016.4 |
| 20260905174008 | 89 | 22 | 1.7 | 4.3 | 0.00 | 0.00 | 0.00 | 55 | 1016.5 |
| 20260905173508 | 90 | 63 | 0.9 | 2.6 | 0.00 | 0.00 | 0.00 | 58 | 1016.5 |
| 20260905173016 | 89 | 89 | 0.0 | 5.2 | 0.00 | 0.00 | 0.00 | 57 | 1016.6 |
| 20260905172514 | 88 | 44 | 1.7 | 5.2 | 0.00 | 0.00 | 0.00 | 59 | 1016.7 |
| 20260905172015 | 88 | 64 | 2.6 | 5.2 | 0.00 | 0.00 | 0.00 | 58 | 1016.7 |
| 20260905171524 | 88 | 47 | 1.7 | 4.3 | 0.00 | 0.00 | 0.00 | 59 | 1016.7 |
| 20260905171015 | 88 | 53 | 1.7 | 7.0 | 0.00 | 0.00 | 0.00 | 57 | 1016.8 |
| 20260905170514 | 88 | 27 | 3.5 | 7.0 | 0.00 | 0.00 | 0.00 | 60 | 1016.8 |
| 20260905170025 | 88 | 53 | 2.6 | 5.2 | 0.00 | 0.00 | 0.00 | 60 | 1016.9 |
| 20260905165514 | 88 | 55 | 2.6 | 5.2 | 0.00 | 0.00 | 0.00 | 60 | 1016.8 |
| 20260905165015 | 88 | 57 | 2.6 | 4.3 | 0.00 | 0.00 | 0.00 | 62 | 1016.9 |
| 20260905164515 | 88 | 72 | 2.6 | 5.2 | 0.00 | 0.00 | 0.00 | 60 | 1017.0 |
| 20260905164007 | 88 | 62 | 3.5 | 5.2 | 0.00 | 0.00 | 0.00 | 60 | 1017.1 |
| 20260905163507 | 88 | 36 | 2.6 | 5.2 | 0.00 | 0.00 | 0.00 | 63 | 1017.1 |
| 20260905163013 | 87 | 34 | 1.7 | 5.2 | 0.00 | 0.00 | 0.00 | 64 | 1017.2 |
| 20260905162511 | 87 | 51 | 0.9 | 5.2 | 0.00 | 0.00 | 0.00 | 64 | 1017.2 |
| 20260905162010 | 87 | 90 | 2.6 | 5.2 | 0.00 | 0.00 | 0.00 | 65 | 1017.4 |
| 20260905161519 | 87 | 8 | 1.7 | 5.2 | 0.00 | 0.00 | 0.00 | 63 | 1017.4 |
| 20260905161012 | 87 | 39 | 1.7 | 6.1 | 0.00 | 0.00 | 0.00 | 64 | 1017.5 |
| 20260905160514 | 87 | 46 | 2.6 | 6.1 | 0.00 | 0.00 | 0.00 | 64 | 1017.5 |
| 20260905160027 | 87 | 9 | 2.6 | 5.2 | 0.00 | 0.00 | 0.00 | 64 | 1017.5 |
| 20260905155516 | 87 | 56 | 2.6 | 5.2 | 0.00 | 0.00 | 0.00 | 64 | 1017.5 |
| 20260905155013 | 87 | 32 | 1.7 | 5.2 | 0.00 | 0.00 | 0.00 | 64 | 1017.6 |
| 20260905154527 | 87 | 29 | 2.6 | 5.2 | 0.00 | 0.00 | 0.00 | 63 | 1017.8 |
| 20260905154018 | 86 | 41 | 1.7 | 5.2 | 0.00 | 0.00 | 0.00 | 65 | 1017.7 |
| 20260905153516 | 86 | 351 | 2.6 | 6.1 | 0.00 | 0.00 | 0.00 | 64 | 1017.7 |
| 20260905153026 | 86 | 132 | 3.5 | 6.1 | 0.00 | 0.00 | 0.00 | 64 | 1017.7 |
| 20260905152507 | 87 | 71 | 3.5 | 6.1 | 0.00 | 0.00 | 0.00 | 64 | 1017.8 |
| 20260905152011 | 87 | 43 | 1.7 | 2.6 | 0.00 | 0.00 | 0.00 | 64 | 1017.8 |
| 20260905151520 | 88 | 58 | 0.9 | 2.6 | 0.00 | 0.00 | 0.00 | 61 | 1017.8 |
| 20260905151013 | 88 | 323 | 0.0 | 1.7 | 0.00 | 0.00 | 0.00 | 64 | 1017.8 |
| 20260905150620 | 87 | 323 | 0.0 | 1.7 | 0.00 | 0.00 | 0.00 | 64 | 1017.8 |
| 20260905150024 | 87 | 325 | 0.0 | 2.6 | 0.00 | 0.00 | 0.00 | 65 | 1017.8 |
| 20260905145514 | 88 | 304 | 0.9 | 2.6 | 0.00 | 0.00 | 0.00 | 62 | 1017.8 |
| 20260905145014 | 88 | 256 | 0.0 | 0.9 | 0.00 | 0.00 | 0.00 | 65 | 1017.8 |
| 20260905144528 | 88 | 322 | 0.0 | 0.9 | 0.00 | 0.00 | 0.00 | 64 | 1017.8 |
| 20260905144014 | 87 | 323 | 0.0 | 0.9 | 0.00 | 0.00 | 0.00 | 64 | 1017.8 |
| 20260905143513 | 87 | 324 | 0.0 | 0.9 | 0.00 | 0.00 | 0.00 | 69 | 1017.9 |
| 20260905143028 | 87 | 324 | 0.0 | 0.9 | 0.00 | 0.00 | 0.00 | 67 | 1017.9 |
| 20260905142515 | 87 | 324 | 0.0 | 0.0 | 0.00 | 0.00 | 0.00 | 67 | 1017.8 |
| 20260905142015 | 86 | 324 | 0.0 | 0.9 | 0.00 | 0.00 | 0.00 | 69 | 1017.8 |
| 20260905141511 | 86 | 324 | 0.0 | 0.9 | 0.00 | 0.00 | 0.00 | 70 | 1017.9 |
| 20260905141009 | 86 | 325 | 0.0 | 0.9 | 0.00 | 0.00 | 0.00 | 70 | 1017.9 |
| 20260905140513 | 85 | 325 | 0.0 | 1.7 | 0.00 | 0.00 | 0.00 | 72 | 1017.9 |
| 20260905140014 | 85 | 326 | 0.9 | 1.7 | 0.00 | 0.00 | 0.00 | 71 | 1017.9 |
| 20260905135509 | 85 | 324 | 0.0 | 0.9 | 0.00 | 0.00 | 0.00 | 70 | 1017.9 |
| 20260905135014 | 85 | 324 | 0.0 | 0.9 | 0.00 | 0.00 | 0.00 | 70 | 1018.0 |
| 20260905134523 | 85 | 324 | 0.0 | 0.9 | 0.00 | 0.00 | 0.00 | 70 | 1017.9 |
| 20260905134014 | 86 | 325 | 0.0 | 0.9 | 0.00 | 0.00 | 0.00 | 69 | 1018.0 |
| 20260905133515 | 85 | 323 | 0.0 | 0.9 | 0.00 | 0.00 | 0.00 | 69 | 1018.0 |
| 20260905133035 | 84 | 325 | 0.0 | 0.9 | 0.00 | 0.00 | 0.00 | 71 | 1018.1 |
| 20260905132504 | 84 | 323 | 0.0 | 1.7 | 0.00 | 0.00 | 0.00 | 72 | 1018.1 |
| 20260905132007 | 84 | 323 | 0.0 | 1.7 | 0.00 | 0.00 | 0.00 | 70 | 1018.1 |
| 20260905131510 | 84 | 323 | 0.0 | 1.7 | 0.00 | 0.00 | 0.00 | 68 | 1018.1 |
| 20260905131010 | 83 | 321 | 0.0 | 1.7 | 0.00 | 0.00 | 0.00 | 66 | 1018.1 |
| 20260905130508 | 83 | 302 | 0.0 | 1.7 | 0.00 | 0.00 | 0.00 | 72 | 1018.1 |
| 20260905130011 | 83 | 328 | 0.0 | 1.7 | 0.00 | 0.00 | 0.00 | 73 | 1018.0 |
| 20260905125508 | 83 | 330 | 0.0 | 0.9 | 0.00 | 0.00 | 0.00 | 72 | 1018.1 |
| 20260905125010 | 82 | 250 | 0.0 | 0.9 | 0.00 | 0.00 | 0.00 | 73 | 1018.0 |
| 20260905124519 | 81 | 250 | 0.0 | 0.9 | 0.00 | 0.00 | 0.00 | 74 | 1018.0 |
| 20260905124014 | 80 | 250 | 0.0 | 0.9 | 0.00 | 0.00 | 0.00 | 75 | 1018.0 |
| 20260905123512 | 80 | 250 | 0.0 | 0.9 | 0.00 | 0.00 | 0.00 | 73 | 1017.9 |
| 20260905123026 | 80 | 250 | 0.0 | 0.0 | 0.00 | 0.00 | 0.00 | 72 | 1017.9 |
| 20260905122517 | 80 | 250 | 0.0 | 0.0 | 0.00 | 0.00 | 0.00 | 71 | 1017.8 |
| 20260905122013 | 79 | 250 | 0.0 | 0.0 | 0.00 | 0.00 | 0.00 | 72 | 1017.7 |
| 20260905121527 | 79 | 250 | 0.0 | 0.9 | 0.00 | 0.00 | 0.00 | 71 | 1017.7 |
| 20260905121007 | 79 | 250 | 0.0 | 0.9 | 0.00 | 0.00 | 0.00 | 71 | 1017.6 |
| 20260905120508 | 79 | 250 | 0.0 | 0.9 | 0.00 | 0.00 | 0.00 | 72 | 1017.5 |
| 20260905120007 | 79 | 250 | 0.0 | 1.7 | 0.00 | 0.00 | 0.00 | 72 | 1017.5 |
| 20260905115508 | 79 | 250 | 0.0 | 1.7 | 0.00 | 0.00 | 0.00 | 71 | 1017.4 |
| 20260905115015 | 79 | 250 | 0.0 | 1.7 | 0.00 | 0.00 | 0.00 | 71 | 1017.4 |
| 20260905114515 | 79 | 249 | 0.0 | 1.7 | 0.00 | 0.00 | 0.00 | 72 | 1017.4 |
| 20260905114011 | 79 | 247 | 0.0 | 0.9 | 0.00 | 0.00 | 0.00 | 71 | 1017.3 |